TimeCDT,TemperatureF,Dew PointF,Humidity,Sea Level PressureIn,VisibilityMPH,Wind Direction,Wind SpeedMPH,Gust SpeedMPH,PrecipitationIn,Events,Conditions,WindDirDegrees,DateUTC
12:15 AM,50.7,40.1,67,29.95,10.0,North,8.1,-,N/A,,Clear,10,2012-11-02 05:15:00
12:35 AM,49.8,39.6,68,29.95,10.0,North,6.9,-,N/A,,Clear,10,2012-11-02 05:35:00
12:55 AM,49.3,38.8,67,29.95,10.0,North,5.8,-,N/A,,Clear,10,2012-11-02 05:55:00
1:15 AM,48.2,38.3,69,29.96,10.0,North,6.9,-,N/A,,Clear,10,2012-11-02 06:15:00
1:35 AM,48.0,37.2,66,29.96,10.0,NNE,8.1,-,N/A,,Clear,20,2012-11-02 06:35:00
1:55 AM,48.2,36.1,63,29.96,10.0,NNE,6.9,-,N/A,,Clear,20,2012-11-02 06:55:00
2:15 AM,47.3,35.8,64,29.98,10.0,NNE,5.8,-,N/A,,Clear,20,2012-11-02 07:15:00
2:35 AM,46.4,35.2,65,29.98,10.0,NE,4.6,-,N/A,,Clear,40,2012-11-02 07:35:00
2:55 AM,46.0,34.7,65,29.98,10.0,NNE,4.6,-,N/A,,Clear,30,2012-11-02 07:55:00
3:15 AM,45.3,34.7,66,29.99,10.0,Calm,Calm,-,N/A,,Clear,0,2012-11-02 08:15:00
3:35 AM,45.1,34.3,66,30.00,10.0,Calm,Calm,-,N/A,,Clear,0,2012-11-02 08:35:00
3:55 AM,44.2,34.2,68,30.00,10.0,NNE,3.5,-,N/A,,Clear,20,2012-11-02 08:55:00
4:15 AM,43.7,34.0,69,30.00,10.0,Calm,Calm,-,N/A,,Clear,0,2012-11-02 09:15:00
4:35 AM,43.3,34.3,71,30.00,10.0,NE,3.5,-,N/A,,Clear,40,2012-11-02 09:35:00
4:55 AM,42.6,34.3,73,30.00,10.0,NE,3.5,-,N/A,,Clear,50,2012-11-02 09:55:00
5:15 AM,41.7,34.0,74,30.00,10.0,NE,4.6,-,N/A,,Clear,50,2012-11-02 10:15:00
5:35 AM,41.9,33.4,72,30.01,10.0,ENE,3.5,-,N/A,,Clear,60,2012-11-02 10:35:00
5:55 AM,41.5,33.1,72,30.02,10.0,NE,3.5,-,N/A,,Clear,50,2012-11-02 10:55:00
6:15 AM,40.8,32.9,73,30.02,10.0,ENE,3.5,-,N/A,,Clear,60,2012-11-02 11:15:00
6:35 AM,41.4,32.9,72,30.02,10.0,ENE,4.6,-,N/A,,Clear,70,2012-11-02 11:35:00
6:55 AM,40.1,32.9,75,30.02,10.0,NE,4.6,-,N/A,,Clear,50,2012-11-02 11:55:00
7:15 AM,39.4,33.1,78,30.02,10.0,NE,4.6,-,N/A,,Clear,50,2012-11-02 12:15:00
7:35 AM,39.4,33.3,79,30.03,10.0,ENE,3.5,-,N/A,,Clear,60,2012-11-02 12:35:00
7:55 AM,38.7,33.1,80,30.03,10.0,NE,4.6,-,N/A,,Clear,40,2012-11-02 12:55:00
8:15 AM,39.0,33.1,79,30.03,10.0,NE,3.5,-,N/A,,Clear,50,2012-11-02 13:15:00
8:35 AM,40.1,33.8,78,30.05,10.0,ENE,4.6,-,N/A,,Clear,60,2012-11-02 13:35:00
8:55 AM,42.1,34.5,75,30.05,10.0,ENE,6.9,-,N/A,,Clear,70,2012-11-02 13:55:00
9:15 AM,43.2,34.7,72,30.05,10.0,East,6.9,-,N/A,,Clear,90,2012-11-02 14:15:00
9:35 AM,44.2,34.2,68,30.05,10.0,ESE,10.4,-,N/A,,Clear,110,2012-11-02 14:35:00
9:55 AM,45.9,34.2,64,30.05,10.0,ESE,8.1,-,N/A,,Clear,110,2012-11-02 14:55:00
10:15 AM,47.3,33.6,59,30.05,10.0,ESE,11.5,-,N/A,,Clear,110,2012-11-02 15:15:00
10:35 AM,47.5,32.5,56,30.04,10.0,ESE,10.4,-,N/A,,Clear,110,2012-11-02 15:35:00
10:55 AM,48.7,32.9,54,30.04,10.0,ESE,10.4,-,N/A,,Clear,110,2012-11-02 15:55:00
11:15 AM,50.0,32.7,52,30.04,10.0,ESE,10.4,-,N/A,,Clear,110,2012-11-02 16:15:00
11:35 AM,52.0,32.7,48,30.03,10.0,ESE,12.7,-,N/A,,Clear,110,2012-11-02 16:35:00
11:55 AM,52.5,32.4,46,30.02,10.0,East,10.4,-,N/A,,Clear,90,2012-11-02 16:55:00
12:15 PM,54.0,32.9,45,30.02,10.0,ESE,10.4,-,N/A,,Clear,110,2012-11-02 17:15:00
12:35 PM,54.9,32.9,43,30.01,10.0,ESE,9.2,-,N/A,,Clear,120,2012-11-02 17:35:00
12:55 PM,55.8,32.7,42,30.00,10.0,ESE,11.5,-,N/A,,Clear,110,2012-11-02 17:55:00
1:15 PM,56.8,31.6,38,29.99,10.0,East,12.7,16.1,N/A,,Clear,90,2012-11-02 18:15:00
1:35 PM,57.2,32.4,39,29.98,10.0,East,9.2,-,N/A,,Clear,90,2012-11-02 18:35:00
1:55 PM,58.1,32.7,38,29.98,10.0,East,12.7,-,N/A,,Clear,100,2012-11-02 18:55:00
2:15 PM,58.5,31.3,36,29.97,10.0,East,11.5,-,N/A,,Clear,90,2012-11-02 19:15:00
2:35 PM,59.7,31.6,35,29.97,10.0,East,10.4,-,N/A,,Clear,100,2012-11-02 19:35:00
2:55 PM,60.3,31.1,33,29.96,10.0,ESE,11.5,-,N/A,,Clear,110,2012-11-02 19:55:00
3:15 PM,60.4,30.7,33,29.95,10.0,ESE,10.4,16.1,N/A,,Clear,110,2012-11-02 20:15:00
3:55 PM,60.1,30.2,32,29.95,10.0,East,10.4,-,N/A,,Clear,90,2012-11-02 20:55:00
4:15 PM,60.1,31.5,34,29.94,10.0,East,11.5,-,N/A,,Clear,100,2012-11-02 21:15:00
4:35 PM,59.9,30.9,33,29.93,10.0,ESE,11.5,17.3,N/A,,Clear,110,2012-11-02 21:35:00
4:55 PM,58.3,30.7,35,29.93,10.0,ESE,11.5,-,N/A,,Clear,110,2012-11-02 21:55:00
5:15 PM,57.0,30.4,36,29.93,10.0,East,8.1,-,N/A,,Clear,100,2012-11-02 22:15:00
5:55 PM,54.1,30.7,41,29.94,10.0,East,8.1,-,N/A,,Clear,90,2012-11-02 22:55:00
6:15 PM,53.1,30.0,41,29.94,10.0,East,8.1,-,N/A,,Clear,100,2012-11-02 23:15:00
6:55 PM,51.6,30.6,45,29.93,10.0,East,9.2,-,N/A,,Clear,90,2012-11-02 23:55:00
7:15 PM,52.0,31.5,46,29.94,10.0,East,9.2,-,N/A,,Clear,80,2012-11-03 00:15:00
7:35 PM,52.0,31.5,46,29.94,10.0,East,10.4,-,N/A,,Clear,90,2012-11-03 00:35:00
7:55 PM,51.3,31.8,47,29.94,10.0,East,9.2,-,N/A,,Clear,90,2012-11-03 00:55:00
8:15 PM,50.9,32.0,48,29.93,10.0,East,10.4,-,N/A,,Clear,90,2012-11-03 01:15:00
8:35 PM,50.4,32.0,49,29.94,10.0,East,11.5,-,N/A,,Clear,90,2012-11-03 01:35:00
8:55 PM,50.4,32.0,49,29.94,10.0,East,9.2,16.1,N/A,,Clear,80,2012-11-03 01:55:00
9:15 PM,50.2,32.2,50,29.95,10.0,East,11.5,16.1,N/A,,Clear,80,2012-11-03 02:15:00
9:35 PM,50.0,32.4,51,29.94,10.0,East,10.4,-,N/A,,Clear,90,2012-11-03 02:35:00
9:55 PM,49.3,32.7,53,29.94,10.0,East,11.5,17.3,N/A,,Clear,90,2012-11-03 02:55:00
10:15 PM,49.1,32.5,53,29.94,10.0,East,10.4,-,N/A,,Clear,80,2012-11-03 03:15:00
10:35 PM,48.7,32.4,53,29.94,10.0,East,10.4,-,N/A,,Clear,80,2012-11-03 03:35:00
10:55 PM,48.6,32.5,54,29.94,10.0,East,10.4,-,N/A,,Clear,80,2012-11-03 03:55:00
11:15 PM,48.4,32.9,55,29.94,10.0,East,10.4,-,N/A,,Clear,90,2012-11-03 04:15:00
11:35 PM,48.2,33.1,56,29.93,10.0,East,11.5,-,N/A,,Scattered Clouds,100,2012-11-03 04:35:00
11:55 PM,48.2,33.1,56,29.92,10.0,East,10.4,-,N/A,,Scattered Clouds,100,2012-11-03 04:55:00